N7FEQ Weather Reports


time (UTC)temp
F
wind
direction
speed
knots
gust
knots
rain 1hr
in
rain 24hr
in
rain mn
in
humidity
%
barometer
mb
20260506050718 63 303 6.1 11.3 0.00 0.00 0.00 38 1014.9
20260506044641 64 0 7.8 15.6 0.00 0.00 0.00 37 1014.7
20260506043625 64 0 6.1 10.4 0.00 0.00 0.00 38 1014.6
20260506042556 64 0 5.2 10.4 0.00 0.00 0.00 39 1014.6
20260506035510 64 0 8.7 13.0 0.00 0.00 0.00 40 1013.9
20260506033450 64 0 6.1 8.7 0.00 0.00 0.00 42 1013.5
20260506031428 64 0 3.5 12.2 0.00 0.00 0.00 45 1013.3
20260506024405 65 0 2.6 8.7 0.00 0.00 0.00 43 1013.1
20260506023351 66 0 1.7 5.2 0.00 0.00 0.00 42 1012.8
20260506021325 67 0 2.6 6.1 0.00 0.00 0.00 40 1012.6
20260506020319 68 0 0.0 2.6 0.00 0.00 0.00 39 1012.6
20260506015305 68 0 2.6 4.3 0.00 0.00 0.00 37 1012.5
20260506014241 68 315 2.6 4.3 0.00 0.00 0.00 37 1012.6
20260506013221 69 315 1.7 4.3 0.00 0.00 0.00 36 1012.6
20260506012201 69 315 1.7 5.2 0.00 0.00 0.00 36 1012.7
20260506011145 70 312 1.7 3.5 0.00 0.00 0.00 34 1012.7
20260506010124 71 0 0.9 7.0 0.00 0.00 0.00 35 1012.6
20260506005101 72 0 0.0 0.0 0.00 0.00 0.00 33 1012.6
20260506004041 72 0 0.0 0.0 0.00 0.00 0.00 31 1012.6
20260506003029 72 0 0.0 0.0 0.00 0.00 0.00 32 1012.6
20260506002004 72 0 0.0 0.0 0.00 0.00 0.00 32 1012.6
20260506000941 71 0 0.0 0.0 0.00 0.00 0.00 33 1012.6
20260505235921 72 0 0.0 0.0 0.00 0.00 0.00 33 1012.7
20260505234901 71 0 0.0 0.0 0.00 0.00 0.00 34 1012.7
20260505232827 72 0.0 0.0 0.00 0.00 0.00 35
20260505223906 70 313 2.6 9.6 0.00 0.29 0.00 35 1013.1
20260505222844 70 197 3.5 11.3 0.00 0.29 0.00 35 1013.2
20260505221823 71 0 1.7 7.8 0.00 0.29 0.00 37 1013.3
20260505220803 71 0 0.9 2.6 0.00 0.29 0.00 37 1013.5
20260505215740 70 0 0.9 5.2 0.00 0.29 0.00 38 1013.5
20260505214722 68 0 0.9 4.3 0.00 0.29 0.00 42 1013.7
20260505212641 69 0 1.7 7.0 0.00 0.29 0.00 41 1013.8
20260505211621 67 0 3.5 9.6 0.00 0.29 0.00 45 1013.9
20260505205540 67 0 2.6 9.6 0.00 0.29 0.00 45 1014.0
20260505204526 67 0 2.6 7.8 0.00 0.29 0.00 44 1014.0
20260505203509 69 0 4.3 8.7 0.00 0.29 0.00 40 1014.1
20260505202453 70 0 2.6 8.7 0.00 0.32 0.00 43 1014.0
20260505201441 69 0 0.9 10.4 0.00 0.32 0.00 44 1014.1
20260505194421 67 0 2.6 8.7 0.00 0.33 0.00 46 1014.5
20260505193409 65 83 1.7 7.0 0.00 0.33 0.00 54 1014.4
20260505192402 62 0 2.6 7.8 0.00 0.33 0.00 56 1014.5
20260505191404 63 0 2.6 7.8 0.00 0.33 0.00 53 1014.4
20260505190402 62 0 1.7 4.3 0.00 0.33 0.00 60 1014.4
20260505185352 61 0 1.7 5.2 0.00 0.33 0.00 59 1014.5
20260505184343 59 0 2.6 7.0 0.00 0.33 0.00 62 1014.4
20260505183329 58 182 1.7 3.5 0.00 0.33 0.00 65 1014.4
20260505182311 56 183 0.0 0.9 0.00 0.33 0.00 69 1014.4
20260505181301 55 178 0.0 0.0 0.00 0.33 0.00 69 1014.4
20260505180244 54 181 0.0 0.0 0.00 0.33 0.00 71 1014.4
20260505175221 53 182 0.0 0.0 0.00 0.33 0.00 73 1014.2
20260505174159 53 184 0.0 0.0 0.00 0.33 0.00 73 1014.1
20260505173142 53 0 0.0 0.0 0.00 0.33 0.00 73 1014.0
20260505165033 51 0 0.0 0.0 0.00 0.33 0.00 78 1013.8
20260505164028 50 0 0.0 0.0 0.00 0.33 0.00 80 1013.8
20260505163029 50 0 0.9 2.6 0.00 0.33 0.00 79 1013.8
20260505162027 50 0 0.0 1.7 0.00 0.34 0.00 80 1013.7
20260505161006 49 0 1.7 5.2 0.00 0.34 0.00 81 1013.4
20260505152846 47 0 3.5 5.2 0.00 0.35 0.00 83 1013.1
20260505151826 47 0 2.6 5.2 0.00 0.35 0.00 83 1013.1
20260505150805 47 0 0.0 2.6 0.00 0.35 0.00 84 1013.1
20260505140608 46 0 3.5 7.0 0.00 0.35 0.00 83 1012.4
20260505123338 44 0 7.0 10.4 0.00 0.35 0.00 83 1011.6
20260505121316 44 0 7.0 9.6 0.00 0.35 0.00 83 1011.7
20260505120302 44 0 7.0 11.3 0.00 0.35 0.00 83 1011.7
20260505115249 44 0 7.0 10.4 0.00 0.35 0.00 83 1011.6
20260505114251 44 0 6.1 11.3 0.00 0.35 0.00 83 1011.6
20260505113239 44 0 4.3 7.0 0.00 0.35 0.00 84 1011.6
20260505112235 44 0 4.3 7.8 0.00 0.35 0.00 84 1011.6
20260505111227 44 0 6.1 9.6 0.00 0.35 0.00 84 1011.6
20260505101109 44 0 2.6 4.3 0.00 0.35 0.00 85 1011.9
20260505100055 44 0 4.3 7.0 0.00 0.35 0.00 84 1011.9
20260505095028 44 0 4.3 7.8 0.00 0.35 0.00 84 1011.9
20260505094009 44 0 5.2 9.6 0.00 0.35 0.00 85 1012.0
20260505092959 44 0 6.1 10.4 0.00 0.35 0.00 84 1011.9
20260505091946 44 0 3.5 7.8 0.00 0.35 0.00 84 1012.0
20260505090918 44 0 5.2 10.4 0.00 0.35 0.00 85 1012.1
20260505084836 44 0 4.3 8.7 0.00 0.35 0.00 84 1012.0
20260505083820 44 0 5.2 8.7 0.00 0.35 0.00 85 1012.1
20260505082756 44 0 2.6 5.2 0.00 0.35 0.00 86 1012.4
20260505081739 43 0 3.5 7.8 0.00 0.35 0.00 85 1012.4
20260505075659 43 0 4.3 8.7 0.00 0.35 0.00 84 1012.6
20260505074639 43 0 6.1 11.3 0.00 0.35 0.00 85 1012.7
20260505073616 43 0 2.6 7.0 0.00 0.35 0.00 88 1012.7
20260505072556 43 0 1.7 4.3 0.00 0.35 0.00 86 1013.0
20260505071539 44 314 0.9 3.5 0.00 0.35 0.00 85 1012.8
20260505070518 44 319 1.7 3.5 0.00 0.35 0.00 84 1012.5
20260505064446 44 0 8.7 13.9 0.00 0.35 0.35 82 1012.4
20260505062411 44 0 6.1 12.2 0.00 0.35 0.35 81 1011.3
20260505061351 45 0 6.1 13.9 0.00 0.35 0.35 81 1011.4
20260505060330 45 288 7.0 13.0 0.00 0.35 0.35 82 1011.4